[[{"header":{"parameterUnit":"m.s-1","parameterCategory":1,"la1":30.2991,"la2":30.254,"lo1":-89.0895,"lo2":-89.0444,"dy":0.0017,"dx":0.0017,"nx":28,"ny":28,"refTime":"2023-10-25T03:00:00:Z","depth":0,"parameterNumber":2,"parameterNumberName":"U-component_of_WINDS"},"data":[0,0,0,0,0,0,0,0,0,0,0,0,0,0,0,0,0,0,0,0,0,0,0,0,0,0,0,0,0,0,0,0,0,0,0,0,0,0,0,0,0,0,0,0,0,0,0,0,0,0,0,0,0,0,0,0,0,0,-4.2061,-4.2061,0,-4.213,-4.2131,-4.2132,-4.2044,-4.2041,-4.2038,-4.2035,-4.2105,-4.2109,-4.2114,0,0,0,0,0,0,0,0,0,0,0,0,0,-4.1853,-4.1858,-4.2061,-4.2061,-4.2062,-4.213,-4.2131,-4.2132,-4.2045,-4.2041,-4.2037,-4.2033,-4.2103,-4.2109,-4.2115,0,0,0,0,0,0,0,0,0,0,0,0,0,-4.1935,-4.1859,-4.206,-4.2027,-4.2025,-4.213,-4.2131,-4.2132,-4.2046,-4.2041,-4.2036,-4.2031,-4.2101,-4.2108,-4.2115,-4.2256,0,0,-4.2138,-4.2141,0,0,0,0,0,0,0,0,-4.1931,-4.1943,-4.2031,-4.203,-4.2027,-4.2074,-4.2083,-4.2174,-4.2047,-4.2038,-4.2035,-4.2029,-4.2098,-4.2105,-4.2129,-4.2259,-4.2262,-4.2138,-4.2143,-4.2146,-4.2148,0,0,0,0,0,0,0,-4.1925,-4.1939,-4.2088,-4.2032,-4.203,-4.2009,-4.2015,-4.21,-4.2094,-4.2038,-4.2032,-4.2041,-4.2096,-4.2122,-4.213,-4.2263,-4.2138,-4.2144,-4.2149,-4.2152,-4.2516,-4.2521,0,0,0,0,0,0,-4.1923,-4.1935,-4.2086,-4.209,-4.1966,-4.2017,-4.2024,-4.2064,-4.2093,-4.2093,-4.2045,-4.2037,-4.2112,-4.2121,-4.2132,-4.2299,-4.2146,-4.2152,-4.2157,-4.2511,-4.2517,-4.2523,0,0,0,0,0,0,-4.1919,-4.1938,-4.2083,-4.2011,-4.2028,-4.2025,-4.2071,-4.2067,-4.2093,-4.2098,-4.2097,-4.2073,-4.2109,-4.2122,-4.2227,-4.2301,-4.2156,-4.2162,-4.2504,-4.2513,-4.252,-4.2635,0,0,0,0,0,0,-4.1914,-4.1937,-4.1989,-4.2013,-4.2032,-4.2176,-4.2075,-4.2072,-4.2106,-4.2096,-4.2124,-4.2124,-4.2106,-4.2216,-4.2234,-4.2308,-4.2168,-4.2497,-4.2508,-4.2517,-4.2625,-4.2646,-4.2665,0,0,0,0,0,-4.1907,-4.2018,-4.1993,-4.2011,-4.2098,-4.2181,-4.2191,-4.2169,-4.2112,-4.2166,-4.217,-4.2123,-4.2291,-4.2228,-4.2247,-4.2324,-4.2493,-4.2505,-4.2517,-4.2616,-4.2642,-4.2664,0,0,0,0,0,0,-4.2002,-4.2021,-4.1992,-4.2115,-4.2147,-4.2166,-4.2232,-4.2197,-4.2245,-4.2234,-4.2204,-4.2211,-4.2323,-4.2334,-4.2264,-4.2464,-4.2382,-4.2399,-4.2451,-4.2476,-4.2496,-4.2489,-4.2174,0,0,0,0,0,-4.2038,-4.2103,-4.2116,-4.2223,-4.2241,-4.2234,-4.2269,-4.225,-4.2281,-4.2294,-4.2305,-4.2338,-4.2398,-4.2438,-4.2494,-4.2627,-4.2633,-4.269,-4.271,-4.2727,-4.274,-4.2814,-4.284,-4.2562,-4.2562,-4.2562,0,0,-4.2111,-4.2129,-4.2172,-4.2243,-4.2265,-4.2334,-4.2246,-4.2322,-4.2372,-4.2305,-4.2405,-4.2416,-4.245,-4.2571,-4.2624,-4.2583,-4.2819,-4.2742,-4.2755,-4.276,-4.2829,-4.2855,-4.2878,-4.257,-4.2569,-4.2567,0,0,-4.2279,-4.23,-4.2392,-4.2418,-4.2454,-4.2449,-4.2472,-4.2497,-4.2502,-4.2602,-4.2554,-4.2615,-4.2718,-4.2746,-4.2773,-4.2958,-4.2917,-4.2977,-4.308,-4.3151,-4.3173,-4.3193,-4.3258,-4.3283,-4.2991,-4.2992,-4.2992,0,-4.2365,-4.2467,-4.2444,-4.2524,-4.2557,-4.2502,-4.2596,-4.2621,-4.2674,-4.2698,-4.2653,-4.2784,-4.2803,-4.293,-4.2976,-4.3,-4.3025,-4.2972,-4.3172,-4.3191,-4.3209,-4.3271,-4.3296,-4.2999,-4.2998,-4.2997,-4.2996,0,-4.2571,-4.2643,-4.2713,-4.2767,-4.2808,-4.2895,-4.2885,-4.293,-4.2909,-4.291,-4.3014,-4.3037,-4.3097,-4.3126,-4.3105,-4.3251,-4.3225,-4.3177,-4.3094,-4.3243,-4.3301,-4.3325,-4.3009,-4.3006,-4.3004,-4.3002,0,0,-4.2797,-4.284,-4.2866,-4.2891,-4.2929,-4.2984,-4.307,-4.313,-4.3169,-4.3209,-4.328,-4.3372,-4.3328,-4.336,-4.3342,-4.3405,-4.3551,-4.3349,-4.335,-4.3386,-4.3715,-4.375,-4.3778,-4.3526,-4.353,-4.3534,-4.3712,0,-4.2965,-4.3113,-4.3097,-4.3238,-4.3304,-4.3256,-4.3331,-4.3363,-4.3368,-4.3425,-4.343,-4.3496,-4.3434,-4.3453,-4.3514,-4.3521,-4.3617,-4.3508,-4.3591,-4.3595,-4.3582,-4.3808,-4.3844,-4.401,-4.3734,-4.3738,-4.3741,0,-4.3179,-4.3229,-4.3377,-4.3408,-4.3435,-4.3503,-4.3558,-4.3614,-4.3651,-4.365,-4.3688,-4.366,-4.3747,-4.3666,-4.3786,-4.3713,-4.3747,-4.3756,-4.3762,-4.3767,-4.3675,-4.3818,-4.4063,-4.4087,-4.3777,-4.3774,-4.3771,0,-4.3329,-4.3432,-4.3534,-4.3557,-4.3596,-4.3645,-4.3663,-4.3695,-4.3734,-4.3783,-4.3808,-4.3866,-4.3898,-4.3944,-4.3934,-4.3876,-4.4058,-4.3975,-4.4059,-4.406,-4.4097,-4.4094,-4.435,-4.4123,-4.4122,-4.4122,-4.4121,0,-4.3517,-4.3609,-4.3602,-4.3665,-4.3768,-4.375,-4.3853,-4.3865,-4.3895,-4.396,-4.3923,-4.3985,-4.3968,-4.4031,-4.4024,-4.4125,-4.414,-4.4142,-4.4138,-4.4144,-4.4144,-4.4164,-4.4151,-4.4128,-4.4127,-4.4126,-4.4125,0,-4.3698,-4.3698,-4.3806,-4.3836,-4.3846,-4.392,-4.3946,-4.4006,-4.4009,-4.4092,-4.4111,-4.4117,-4.4188,-4.4184,-4.4264,-4.4259,-4.4384,-4.4368,-4.4372,-4.4368,-4.4452,-4.4444,-4.4728,-4.4764,-4.4515,-4.4518,-4.452,0,-4.3817,-4.3887,-4.3926,-4.3967,-4.399,-4.4057,-4.4096,-4.4083,-4.4126,-4.4176,-4.4231,-4.4299,-4.4352,-4.447,-4.4481,-4.4543,-4.4527,-4.4623,-4.4536,-4.4541,-4.4528,-4.4523,-4.453,-4.4639,-4.4641,-4.4644,-4.4646,0,-4.4028,-4.4026,-4.4084,-4.4145,-4.4194,-4.424,-4.4282,-4.4319,-4.431,-4.4361,-4.4434,-4.4477,-4.456,-4.4629,-4.4689,-4.4709,-4.4677,-4.4674,-4.4696,-4.4702,-4.4701,-4.4702,-4.4417,-4.4666,-4.4664,-4.4663,-4.4662,-4.4661,-4.4181,-4.4242,-4.428,-4.4347,-4.4379,-4.4421,-4.4479,-4.4492,-4.4553,-4.462,-4.461,-4.4692,-4.4731,-4.4809,-4.4835,-4.49,-4.4865,-4.4898,-4.4906,-4.4914,-4.4924,-4.4693,-4.4911,-4.491,-4.491,-4.4909,-4.4909,0,-4.4389,-4.4412,-4.4475,-4.4537,-4.4591,-4.4559,-4.4605,-4.4652,-4.4726,-4.4765,-4.482,-4.4906,-4.4974,-4.4993,-4.5058,-4.5107,-4.5094,-4.5125,-4.512,-4.5125,-4.4951,-4.4924,-4.5134,-4.5134,-4.5134,-4.5134,-4.5134,-4.5134,-4.4504,-4.4606,-4.4609,-4.4727,-4.4749,-4.483,-4.486,-4.4899,-4.4931,-4.5028,-4.5085,-4.5098,-4.513,-4.5198,-4.526,-4.5264,-4.5289,-4.5326,-4.5324,-4.516,-4.5137,-4.5115,-4.509,-4.5332,-4.5332,-4.5493,-4.5494,-4.5495]},{"header":{"parameterUnit":"m.s-1","parameterCategory":1,"la1":30.2991,"la2":30.254,"lo1":-89.0895,"lo2":-89.0444,"dy":0.0017,"dx":0.0017,"nx":28,"ny":28,"refTime":"2023-10-25T03:00:00:Z","depth":0,"parameterNumber":3,"parameterNumberName":"V-component_of_WINDS"},"data":[0,0,0,0,0,0,0,0,0,0,0,0,0,0,0,0,0,0,0,0,0,0,0,0,0,0,0,0,0,0,0,0,0,0,0,0,0,0,0,0,0,0,0,0,0,0,0,0,0,0,0,0,0,0,0,0,0,0,2.1904,2.1903,0,2.1842,2.1841,2.184,2.1693,2.169,2.1687,2.1684,2.1619,2.162,2.1622,0,0,0,0,0,0,0,0,0,0,0,0,0,2.1898,2.1899,2.1904,2.1903,2.1903,2.1842,2.1841,2.184,2.1693,2.1689,2.1686,2.1682,2.1619,2.162,2.1622,0,0,0,0,0,0,0,0,0,0,0,0,0,2.1875,2.1899,2.1904,2.1822,2.1814,2.1842,2.1841,2.184,2.1694,2.1689,2.1685,2.1681,2.1619,2.162,2.1622,2.1724,0,0,2.1627,2.1628,0,0,0,0,0,0,0,0,2.1876,2.1875,2.1835,2.1828,2.1819,2.177,2.1815,2.1801,2.1695,2.174,2.1684,2.1678,2.1673,2.167,2.1668,2.1721,2.1719,2.1627,2.1628,2.1629,2.163,0,0,0,0,0,0,0,2.1878,2.1877,2.1879,2.1834,2.1825,2.1789,2.178,2.1812,2.1733,2.1735,2.1724,2.1719,2.1668,2.1667,2.1666,2.1718,2.1627,2.1629,2.163,2.163,2.1855,2.186,0,0,0,0,0,0,2.1892,2.1879,2.1881,2.1877,2.1837,2.1793,2.1783,2.179,2.1732,2.1719,2.1723,2.1713,2.1667,2.1664,2.1663,2.1781,2.1629,2.1631,2.1632,2.185,2.1856,2.1861,0,0,0,0,0,0,2.1892,2.1893,2.1884,2.1876,2.1872,2.1798,2.1807,2.1792,2.1791,2.1723,2.1708,2.1737,2.1663,2.1661,2.1711,2.1777,2.1631,2.1633,2.1844,2.1852,2.1859,2.2017,0,0,0,0,0,0,2.1893,2.1894,2.1932,2.1877,2.1873,2.1933,2.1811,2.1794,2.1794,2.178,2.1732,2.1719,2.1659,2.1709,2.1713,2.1776,2.1634,2.1838,2.1848,2.1856,2.2005,2.2029,2.2049,0,0,0,0,0,2.1893,2.1978,2.1934,2.1935,2.1918,2.1936,2.1934,2.1862,2.18,2.1837,2.1795,2.1721,2.1769,2.1716,2.1718,2.1783,2.1833,2.1845,2.1856,2.1996,2.2024,2.2048,0,0,0,0,0,0,2.204,2.1969,2.192,2.199,2.1971,2.1912,2.1956,2.1895,2.1892,2.1879,2.1791,2.1781,2.1844,2.1818,2.176,2.1881,2.179,2.1802,2.1895,2.1922,2.1943,2.1948,2.1636,0,0,0,0,0,2.2081,2.2102,2.2039,2.2107,2.21,2.2031,2.2036,2.1983,2.1959,2.195,2.1911,2.1891,2.1902,2.191,2.1916,2.2002,2.199,2.2048,2.207,2.2088,2.2099,2.2145,2.2171,2.1898,2.1898,2.1897,0,0,2.2165,2.2129,2.2147,2.2136,2.2114,2.2139,2.2024,2.2054,2.2072,2.1954,2.2,2.1971,2.1943,2.2013,2.2041,2.1993,2.2173,2.2102,2.2117,2.2118,2.2159,2.2185,2.2208,2.1905,2.1904,2.1903,0,0,2.2331,2.2305,2.236,2.2342,2.2312,2.2266,2.228,2.2231,2.2208,2.2253,2.2166,2.2186,2.2206,2.2191,2.2185,2.2351,2.2284,2.2355,2.2468,2.2514,2.2535,2.2554,2.2614,2.2637,2.2367,2.2367,2.2368,0,2.2439,2.2472,2.2396,2.2433,2.2431,2.2328,2.2384,2.237,2.2344,2.2346,2.2293,2.2318,2.2292,2.2357,2.2398,2.2397,2.2411,2.2359,2.2538,2.2556,2.2573,2.2629,2.2652,2.2376,2.2375,2.2374,2.2374,0,2.2607,2.2632,2.268,2.2659,2.2663,2.2709,2.2641,2.2655,2.2603,2.2564,2.2612,2.2578,2.2576,2.2588,2.2537,2.2647,2.2619,2.2554,2.246,2.2609,2.2661,2.2682,2.2389,2.2386,2.2383,2.2381,0,0,2.286,2.28,2.2819,2.281,2.2771,2.2789,2.2832,2.2832,2.2846,2.2832,2.2867,2.2888,2.2829,2.2823,2.277,2.2811,2.2946,2.274,2.2738,2.2781,2.3068,2.3118,2.3144,2.2902,2.2906,2.2909,2.3071,0,2.3017,2.3086,2.3021,2.3104,2.3127,2.3032,2.307,2.3051,2.3017,2.3032,2.2993,2.301,2.293,2.2926,2.2962,2.2922,2.3003,2.291,2.2934,2.2936,2.2944,2.317,2.3222,2.3376,2.309,2.3094,2.3096,0,2.3207,2.3205,2.3291,2.325,2.3257,2.3292,2.3288,2.3304,2.3282,2.3254,2.3251,2.3187,2.3228,2.3138,2.3194,2.3132,2.3139,2.3121,2.3126,2.3125,2.3025,2.3176,2.3423,2.3447,2.3127,2.3124,2.3122,0,2.3385,2.3403,2.3457,2.3452,2.3406,2.3433,2.3415,2.3389,2.3394,2.3391,2.3394,2.3396,2.3397,2.3401,2.334,2.328,2.3405,2.3309,2.3384,2.3386,2.3413,2.3412,2.3665,2.3418,2.3418,2.3417,2.3417,0,2.3566,2.3623,2.3537,2.357,2.3632,2.3558,2.362,2.3593,2.3571,2.3598,2.3516,2.3544,2.3462,2.3482,2.3435,2.349,2.349,2.347,2.3457,2.3477,2.348,2.348,2.3468,2.3423,2.3422,2.3421,2.342,0,2.3774,2.3719,2.3772,2.3725,2.3715,2.3763,2.3723,2.3752,2.3714,2.375,2.3754,2.3693,2.3712,2.3653,2.3662,2.3631,2.3711,2.368,2.3719,2.371,2.3789,2.3782,2.405,2.4082,2.3815,2.3818,2.382,0,2.3893,2.3934,2.3893,2.3906,2.3893,2.3915,2.392,2.3851,2.386,2.3841,2.3874,2.3886,2.3892,2.3928,2.3885,2.3892,2.3861,2.3955,2.3862,2.3882,2.3864,2.3862,2.3867,2.3974,2.3977,2.398,2.3982,0,2.411,2.4082,2.4093,2.4097,2.4107,2.4106,2.4099,2.4115,2.404,2.4055,2.4075,2.408,2.4091,2.4105,2.4104,2.4086,2.4023,2.4012,2.403,2.4051,2.4072,2.4063,2.3772,2.4006,2.4003,2.4002,2.4,2.3999,2.4277,2.4311,2.4289,2.4305,2.4294,2.4291,2.4317,2.4283,2.4298,2.4302,2.4261,2.429,2.427,2.4262,2.4251,2.4274,2.423,2.4256,2.4262,2.427,2.4284,2.407,2.4273,2.4272,2.4271,2.4271,2.427,0,2.4491,2.4473,2.4489,2.4484,2.4498,2.4439,2.443,2.4446,2.4472,2.446,2.4469,2.4493,2.4507,2.4467,2.4476,2.4502,2.4473,2.4507,2.4504,2.4501,2.4321,2.4305,2.453,2.453,2.453,2.453,2.453,2.453,2.4604,2.4659,2.4629,2.4678,2.4659,2.4688,2.4688,2.4686,2.4675,2.4706,2.4719,2.4693,2.467,2.4678,2.4689,2.4677,2.4685,2.4728,2.4707,2.4539,2.4514,2.4489,2.4474,2.4731,2.4731,2.4885,2.4886,2.4887]}]]